FW2969 Weather Reports


time (UTC)temp
F
wind
direction
speed
knots
gust
knots
rain 1hr
in
rain 24hr
in
rain mn
in
humidity
%
barometer
mb
20260507141600 63 282 0.0 5.2 0.00 0.01 0.01 61 1016.9
20260507140051 64 296 0.0 6.1 0.00 0.01 0.01 61 1017.0
20260507134554 63 336 0.9 7.0 0.00 0.01 0.01 63 1016.9
20260507133134 63 326 1.7 9.6 0.00 0.01 0.01 63 1017.0
20260507131548 64 329 1.7 9.6 0.00 0.01 0.01 61 1017.0
20260507130059 64 271 1.7 7.8 0.00 0.01 0.01 64 1017.0
20260507124549 64 351 3.5 9.6 0.00 0.01 0.01 62 1017.1
20260507123048 64 245 2.6 7.8 0.00 0.01 0.01 64 1017.2
20260507121544 64 301 1.7 7.0 0.00 0.01 0.01 64 1017.3
20260507120042 63 287 1.7 7.8 0.00 0.01 0.01 65 1017.4
20260507114552 63 334 4.3 8.7 0.00 0.01 0.01 67 1017.5
20260507113040 63 311 2.6 7.8 0.00 0.01 0.01 67 1017.6
20260507111538 63 331 1.7 5.2 0.00 0.01 0.01 68 1017.7
20260507110041 62 305 2.6 7.8 0.00 0.01 0.01 69 1017.9
20260507104535 62 283 2.6 8.7 0.00 0.01 0.01 70 1017.9
20260507103042 62 290 3.5 7.8 0.00 0.01 0.01 70 1018.0
20260507101537 62 308 1.7 7.0 0.00 0.01 0.01 71 1017.9
20260507100035 61 236 3.5 7.8 0.00 0.01 0.01 71 1017.9
20260507094534 61 250 1.7 7.8 0.00 0.01 0.01 74 1018.1
20260507093029 61 332 2.6 8.7 0.00 0.01 0.01 73 1018.3
20260507091531 60 280 1.7 8.7 0.00 0.01 0.01 74 1018.4
20260507090024 60 296 1.7 7.0 0.00 0.01 0.01 73 1018.5
20260507084524 60 287 2.6 8.7 0.00 0.02 0.01 74 1018.5
20260507083021 59 290 0.9 5.2 0.00 0.02 0.01 73 1018.7
20260507081520 59 259 1.7 5.2 0.00 0.02 0.01 74 1018.8
20260507080019 58 299 2.6 6.1 0.00 0.02 0.01 75 1018.8
20260507074518 58 301 2.6 7.0 0.00 0.02 0.01 74 1018.8
20260507073018 59 310 1.7 5.2 0.00 0.02 0.01 69 1018.5
20260507071518 59 232 0.9 3.5 0.00 0.02 0.01 69 1018.7
20260507070020 58 283 0.9 7.0 0.00 0.02 0.01 67 1018.7
20260507064513 57 43 0.9 3.5 0.00 0.02 0.01 70 1018.9
20260507063007 56 352 0.9 6.1 0.00 0.02 0.01 74 1018.8
20260507061502 55 353 0.9 4.3 0.00 0.02 0.01 81 1018.8
20260507060100 54 285 1.7 4.3 0.00 0.02 0.01 81 1018.8
20260507054558 53 288 0.0 2.6 0.00 0.02 0.01 80 1018.7
20260507053107 53 307 0.0 2.6 0.00 0.02 0.01 83 1018.5
20260507051550 52 295 0.0 2.6 0.00 0.02 0.01 88 1018.2
20260507050046 51 299 0.0 1.7 0.00 0.02 0.01 91 1018.2
20260507044556 49 18 0.0 1.7 0.00 0.02 0.01 94 1018.1
20260507043038 48 342 0.0 1.7 0.00 0.02 0.01 95 1018.1
20260507041544 48 58 0.0 1.7 0.00 0.02 0.01 95 1017.9
20260507040042 47 31 0.0 1.7 0.00 0.02 0.01 95 1017.8
20260507034541 47 100 0.0 7.0 0.00 0.02 0.01 95 1017.6
20260507033044 46 76 0.0 0.9 0.01 0.02 0.01 95 1017.6
20260507031550 46 92 0.0 0.9 0.01 0.02 0.01 95 1017.4
20260507030038 46 92 0.0 0.9 0.01 0.02 0.01 95 1017.2
20260507024534 46 92 0.0 0.9 0.01 0.02 0.01 95 1017.3
20260507023031 46 45 0.0 1.7 0.00 0.01 0.00 95 1017.2
20260507021533 46 40 0.0 0.9 0.00 0.01 0.00 95 1017.2
20260507020029 46 40 0.0 0.0 0.00 0.01 0.00 95 1017.3
20260507014539 46 40 0.0 0.0 0.00 0.01 0.00 95 1017.3
20260507013034 47 40 0.0 0.9 0.00 0.01 0.00 95 1017.3
20260507011531 47 40 0.0 0.9 0.00 0.01 0.00 95 1017.3
20260507010027 47 40 0.0 1.7 0.00 0.01 0.00 95 1017.2
20260507004522 47 39 0.0 0.9 0.00 0.01 0.00 95 1017.2
20260507003021 47 94 0.0 1.7 0.00 0.01 0.00 95 1017.3
20260507001525 47 261 0.0 0.0 0.00 0.01 0.00 95 1017.3
20260507000019 47 41 0.0 1.7 0.00 0.01 0.00 95 1017.2
20260506234517 47 45 0.0 0.9 0.00 0.01 0.00 95 1017.4
20260506233017 47 32 0.0 1.7 0.00 0.01 0.00 95 1017.4
20260506231515 47 48 0.0 0.9 0.00 0.01 0.00 95 1017.3
20260506230013 47 38 0.0 1.7 0.00 0.01 0.00 95 1017.5
20260506224513 47 43 0.0 0.0 0.00 0.01 0.00 95 1017.5
20260506223016 47 43 0.0 0.9 0.00 0.01 0.00 95 1017.6
20260506221508 47 43 0.0 0.0 0.00 0.01 0.00 95 1017.8
20260506220007 47 43 0.0 0.0 0.00 0.01 0.00 95 1017.9
20260506214505 48 43 0.0 1.7 0.00 0.01 0.00 95 1018.0
20260506213003 47 38 0.0 0.0 0.00 0.01 0.00 95 1017.9
20260506211558 47 38 0.0 0.0 0.00 0.01 0.00 95 1018.1
20260506210054 47 38 0.0 0.9 0.00 0.01 0.00 95 1018.2
20260506204553 47 36 0.0 0.0 0.00 0.01 0.01 94 1018.2
20260506203053 47 36 0.0 0.0 0.00 0.01 0.01 94 1018.3
20260506201555 48 36 0.0 0.0 0.00 0.01 0.01 94 1018.3
20260506200051 48 36 0.0 0.0 0.00 0.01 0.01 94 1018.3
20260506194552 48 36 0.0 0.0 0.00 0.04 0.01 94 1018.3
20260506193050 48 36 0.0 0.0 0.00 0.04 0.01 93 1018.1
20260506191549 48 36 0.0 0.0 0.00 0.04 0.01 93 1018.2
20260506190052 48 36 0.0 0.0 0.00 0.04 0.01 93 1018.2
20260506184551 49 36 0.0 0.0 0.00 0.04 0.01 93 1018.1
20260506183049 49 311 0.0 0.0 0.00 0.04 0.01 92 1018.1
20260506181545 49 311 0.0 0.0 0.00 0.04 0.01 92 1018.1
20260506180047 49 311 0.0 0.0 0.00 0.04 0.01 91 1017.9
20260506174543 50 311 0.0 0.0 0.00 0.04 0.01 91 1017.9
20260506173115 50 311 0.0 0.0 0.00 0.04 0.01 90 1017.8
20260506171541 50 311 0.0 0.0 0.00 0.04 0.01 90 1017.7
20260506170041 51 311 0.0 0.9 0.00 0.04 0.01 89 1017.6
20260506164541 51 311 0.0 0.0 0.00 0.05 0.01 88 1017.5
20260506163041 52 311 0.0 0.9 0.00 0.05 0.01 86 1017.5
20260506161539 53 320 0.0 2.6 0.00 0.05 0.01 84 1017.3
20260506160038 55 255 0.0 1.7 0.00 0.05 0.01 83 1017.4
20260506154537 55 299 0.0 3.5 0.00 0.05 0.01 82 1017.3
20260506153038 56 245 0.9 3.5 0.00 0.05 0.01 80 1017.1
20260506151536 56 255 0.0 3.5 0.00 0.05 0.01 80 1017.1
20260506150036 57 255 0.9 5.2 0.00 0.05 0.01 78 1017.0
20260506144539 58 289 0.0 3.5 0.00 0.05 0.01 77 1017.1
20260506143037 57 272 0.9 5.2 0.00 0.05 0.01 76 1017.1